Location: Newark
(50.8086°N, 4.3114°E)
Time: 11:12:32
(UTC+00:00)

XW-2D - Pass Details

Date: 21 January 2020
Orbit: 507 x 528 km, 97.5° (Epoch: 23 February)

Event Time Altitude Azimuth Distance (km) Brightness Sun altitude
Rises 05:09:37 0° 21° (NNE) 2,640 ? -22.3°
Reaches altitude 10° 05:11:55 10° 32° (NNE) 1,744 ? -21.9°
Maximum altitude 05:15:17 31° 96° (E) 921 ? -21.4°
Drops below altitude 10° 05:18:37 10° 160° (SSE) 1,723 ? -20.9°
Sets 05:20:51 0° 171° (S) 2,601 ? -20.5°
